Location: Washington
(38.8950°N, 77.0370°W)
Time: 23:33:14
(UTC-04:00)

Tiangong 1 - Visible Passes

Search period start: 22 August 2014 00:00
Search period end: 01 September 2014 00:00
Orbit: 369 x 374 km, 42.8° (Epoch: 22 August)

Date Brightness Start Highest point End Pass type
(mag) Time Alt. Az. Time Alt. Az. Time Alt. Az.
22 Aug 4.0 03:54:25 16° ENE 03:54:25 16° ENE 03:55:15 10° ENE visible
22 Aug 0.9 05:26:25 14° WNW 05:28:56 74° SSW 05:31:59 10° ESE visible
23 Aug 2.4 04:26:19 37° E 04:26:19 37° E 04:28:22 10° E visible
23 Aug 2.2 05:59:02 10° W 06:01:37 25° SSW 06:04:11 10° SSE visible
24 Aug 1.4 04:58:27 45° S 04:58:27 45° S 05:01:04 10° SE visible
25 Aug 2.8 05:30:50 16° SSW 05:30:50 16° SSW 05:32:34 10° S visible
28 Aug 3.0 20:24:35 10° S 20:26:16 14° SE 20:27:18 12° ESE visible
29 Aug 1.4 20:55:37 10° SW 20:58:32 42° SSE 20:59:06 37° ESE visible
30 Aug 1.5 21:27:56 10° WSW 21:30:35 60° WNW 21:30:35 60° WNW visible
31 Aug 1.0 20:24:01 10° WSW 20:27:03 65° SSE 20:29:53 12° ENE visible
31 Aug 3.7 22:00:39 10° W 22:01:49 20° WNW 22:01:49 20° WNW visible
